{"data":{"norad_id":64519,"intl_designator":"2025-134V","name":"KUIPER-00059","alt_names":[],"object_type":"PAYLOAD","status":"ACTIVE","operator":null,"country":"US","launch_date":"2025-06-23","launch_site_code":"AFETR","launch_vehicle":null,"mission":null,"orbit_class":"UNKNOWN","rcs_meters":null,"size_class":null,"mass_kg":null,"dimensions":null,"purposes":[],"wikipedia_slug":null,"has_3d_model":false,"image_url":null,"decayed_at":null,"tle_current":{"epoch":"2026-05-25T05:20:31.274016Z","epoch_age_seconds":51892,"freshness":"FRESH","line1":"1 64519U 25134V   26145.22258419  .00003332  00000+0  46565-3 0  9990","line2":"2 64519  51.8980 242.1588 0000983  88.4873 271.6202 14.79951076 51584","mean_motion":14.79951076,"eccentricity":9.83e-5,"inclination_deg":51.898,"raan_deg":242.1588,"arg_perigee_deg":88.4873,"mean_anomaly_deg":271.6202,"bstar":0.00046565,"rev_number":5158,"period_min":97.300513736712,"perigee_km":628.78971969266,"apogee_km":630.16741691339,"semimajor_km":7007.615568303,"source":"CELESTRAK","updated_at":"2026-05-25T13:38:04.576609Z"}}}